Location: New Canada
(47.1017°N, 68.5042°W)
Time: 19:12:51
(UTC+00:00)

CUBESAT XI-V - Visible Passes

Search period start: 26 May 2024 00:00
Search period end: 05 June 2024 00:00
Orbit: 657 x 680 km, 98.2° (Epoch: 26 May)

Date Brightness Start Highest point End Pass type
(mag) Time Alt. Az. Time Alt. Az. Time Alt. Az.
26 May ? 05:27:04 10° ESE 05:30:42 24° ENE 05:34:19 10° N visible
26 May ? 07:04:41 19° SSW 07:07:32 42° W 07:11:51 10° NNW visible
27 May ? 05:59:06 14° SE 06:02:44 46° ENE 06:07:04 10° N visible
27 May ? 07:37:16 13° SW 07:40:01 21° W 07:43:28 10° NW visible
28 May ? 04:56:29 10° E 04:58:32 13° ENE 05:00:35 10° NNE visible
28 May ? 06:31:40 19° SSE 06:34:55 88° WSW 06:39:29 10° NNW visible
29 May ? 05:26:49 10° ESE 05:30:25 24° ENE 05:34:01 10° N visible
29 May ? 07:04:16 18° SSW 07:07:15 42° W 07:11:34 10° NNW visible
30 May ? 05:58:39 13° SE 06:02:26 45° ENE 06:06:46 10° N visible
30 May ? 07:36:49 12° SW 07:39:43 21° W 07:43:11 10° NW visible
31 May ? 04:56:12 10° E 04:58:13 13° ENE 05:00:15 10° NNE visible
31 May ? 06:31:14 18° SSE 06:34:36 89° W 06:39:10 10° NNW visible
01 Jun ? 05:26:31 10° ESE 05:30:05 24° ENE 05:33:41 10° N visible
01 Jun ? 07:03:48 17° SSW 07:06:55 43° W 07:11:15 10° NNW visible
02 Jun ? 05:58:11 12° SE 06:02:06 45° ENE 06:06:25 10° N visible
02 Jun ? 07:36:21 12° SW 07:39:22 21° W 07:42:52 10° NW visible
03 Jun ? 04:55:54 10° E 04:57:52 13° ENE 04:59:51 10° NNE visible
03 Jun ? 06:30:45 17° SSE 06:34:14 90° W 06:38:48 10° NNW visible
04 Jun ? 05:26:09 10° ESE 05:29:43 23° ENE 05:33:18 10° N visible
04 Jun ? 07:03:18 17° SSW 07:06:31 43° W 07:10:52 10° NNW visible
